Location: Miles
(41.4492°N, 81.6087°W)
Time: 18:50:37
(UTC+00:00)

Tiros 1 despin weight - Pass Details

Date: 16 September 2024
Orbit: 573 x 615 km, 48.2° (Epoch: 04 October)

Event Time Altitude Azimuth Distance (km) Brightness Sun altitude
Rises 12:02:08 0° 294° (WNW) 2,891 ? 9.2°
Reaches altitude 10° 12:04:33 10° 302° (WNW) 1,985 ? 9.7°
Maximum altitude 12:08:54 42° 14° (NNE) 881 ? 10.5°
Drops below altitude 10° 12:13:14 10° 86° (E) 1,975 ? 11.3°
Sets 12:15:38 0° 93° (E) 2,874 ? 11.7°
